Hourly Weather Bamenda

Today, 1 October, Thursday

Time Temperature Precipitation Wind Pressure Humidity
00:00 +19°C° 1 mm 1 mps 641 mmHg 96%
01:00 +18°C° 0 mm 1 mps 641 mmHg 97%
02:00 +18°C° 0.8 mm 1 mps 640 mmHg 97%
03:00 +18°C° 0.8 mm 1 mps 640 mmHg 97%
04:00 +18°C° 0.8 mm 1 mps 639 mmHg 98%
05:00 +18°C° 0.8 mm 1 mps 640 mmHg 97%
06:00 +18°C° 0.8 mm 1 mps 640 mmHg 97%
07:00 +19°C° 0 mm 1 mps 641 mmHg 96%
08:00 +19°C° 0.2 mm 1 mps 641 mmHg 95%
09:00 +20°C° 0.2 mm 1 mps 641 mmHg 93%
10:00 +21°C° 0.2 mm 1 mps 641 mmHg 92%
11:00 +22°C° 1.2 mm 1 mps 641 mmHg 88%
12:00 +23°C° 1.2 mm 1 mps 641 mmHg 85%
13:00 +24°C° 1.2 mm 1 mps 641 mmHg 82%
14:00 +23°C° 1.5 mm 1 mps 640 mmHg 84%
15:00 +23°C° 1.5 mm 1 mps 639 mmHg 86%
16:00 +23°C° 1.5 mm 1 mps 639 mmHg 89%
17:00 +22°C° 0.7 mm 1 mps 639 mmHg 91%
18:00 +21°C° 0.7 mm 1 mps 639 mmHg 92%
19:00 +18°C° 0.7 mm 0 mps 640 mmHg 94%
20:00 +17°C° 1 mm 0 mps 640 mmHg 94%
21:00 +17°C° 1 mm 0 mps 640 mmHg 94%
22:00 +17°C° 1 mm 0 mps 640 mmHg 93%
23:00 +17°C° 1.1 mm 0 mps 640 mmHg 94%

Tomorrow, 2 October, Friday

Time Temperature Precipitation Wind Pressure Humidity
00:00 +17°C° 1.1 mm 0 mps 640 mmHg 94%
01:00 +17°C° 1.1 mm 0 mps 640 mmHg 94%
02:00 +17°C° 0.4 mm 0 mps 640 mmHg 95%
03:00 +16°C° 0.4 mm 0 mps 639 mmHg 95%
04:00 +16°C° 0.4 mm 0 mps 639 mmHg 95%
05:00 +17°C° 0.5 mm 0 mps 640 mmHg 95%
06:00 +17°C° 0.5 mm 0 mps 640 mmHg 95%
07:00 +17°C° 0.5 mm 0 mps 641 mmHg 95%
08:00 +18°C° 0.8 mm 0 mps 641 mmHg 92%
09:00 +19°C° 0.8 mm 0 mps 642 mmHg 90%
10:00 +20°C° 0.8 mm 0 mps 642 mmHg 88%
11:00 +23°C° 1.3 mm 1 mps 642 mmHg 87%
12:00 +23°C° 1.3 mm 1 mps 642 mmHg 87%
13:00 +23°C° 1.3 mm 1 mps 641 mmHg 86%
14:00 +23°C° 1.4 mm 1 mps 641 mmHg 86%
15:00 +21°C° 1.4 mm 0 mps 640 mmHg 86%
16:00 +21°C° 1.4 mm 0 mps 639 mmHg 87%
17:00 +19°C° 0.8 mm 0 mps 639 mmHg 89%
18:00 +18°C° 0.8 mm 0 mps 639 mmHg 92%
19:00 +17°C° 0.8 mm 0 mps 639 mmHg 94%
20:00 +17°C° 0.1 mm 0 mps 640 mmHg 94%
21:00 +17°C° 0.1 mm 0 mps 640 mmHg 94%
22:00 +17°C° 0.1 mm 0 mps 641 mmHg 94%
23:00 +16°C° 0.3 mm 0 mps 640 mmHg 94%

Day after tomorrow, 3 October, Saturday

Time Temperature Precipitation Wind Pressure Humidity
00:00 +16°C° 0.3 mm 0 mps 640 mmHg 95%
01:00 +16°C° 0.3 mm 0 mps 640 mmHg 95%
02:00 +16°C° 0.4 mm 0 mps 640 mmHg 95%
03:00 +16°C° 0.4 mm 0 mps 640 mmHg 95%
04:00 +16°C° 0.4 mm 0 mps 640 mmHg 95%
05:00 +16°C° 0.6 mm 0 mps 640 mmHg 95%
06:00 +16°C° 0.6 mm 0 mps 641 mmHg 95%
07:00 +17°C° 0.6 mm 0 mps 641 mmHg 95%
08:00 +17°C° 0.3 mm 0 mps 642 mmHg 93%
09:00 +18°C° 0.3 mm 0 mps 642 mmHg 91%
10:00 +19°C° 0.3 mm 0 mps 643 mmHg 90%
11:00 +20°C° 0.6 mm 0 mps 642 mmHg 88%
12:00 +22°C° 0.6 mm 1 mps 642 mmHg 87%
13:00 +23°C° 0.6 mm 1 mps 642 mmHg 85%
14:00 +22°C° 0.7 mm 1 mps 641 mmHg 88%
15:00 +19°C° 0.7 mm 0 mps 640 mmHg 91%
16:00 +18°C° 0.7 mm 0 mps 640 mmHg 94%
17:00 +18°C° 0.3 mm 0 mps 640 mmHg 94%
18:00 +17°C° 0.3 mm 0 mps 640 mmHg 94%
19:00 +17°C° 0.3 mm 0 mps 640 mmHg 94%
20:00 +19°C° 0 mm 1 mps 640 mmHg 92%
21:00 +19°C° 0 mm 1 mps 641 mmHg 90%
22:00 +19°C° 0 mm 1 mps 641 mmHg 88%
23:00 +19°C° 0 mm 1 mps 641 mmHg 88%

4 October, Sunday

Time Temperature Precipitation Wind Pressure Humidity
00:00 +19°C° 0 mm 1 mps 641 mmHg 88%
01:00 +19°C° 0 mm 1 mps 641 mmHg 89%
02:00 +16°C° 0 mm 0 mps 641 mmHg 89%
03:00 +16°C° 0 mm 0 mps 640 mmHg 89%
04:00 +16°C° 0 mm 0 mps 640 mmHg 90%
05:00 +16°C° 0 mm 0 mps 640 mmHg 90%
06:00 +16°C° 0 mm 0 mps 641 mmHg 90%
07:00 +17°C° 0 mm 0 mps 641 mmHg 91%
08:00 +18°C° 0.2 mm 0 mps 642 mmHg 87%
09:00 +22°C° 0.2 mm 1 mps 643 mmHg 84%
10:00 +23°C° 0.2 mm 1 mps 644 mmHg 80%
11:00 +23°C° 1.3 mm 1 mps 643 mmHg 80%
12:00 +24°C° 1.3 mm 1 mps 643 mmHg 80%
13:00 +24°C° 1.3 mm 1 mps 642 mmHg 80%
14:00 +23°C° 1.5 mm 1 mps 641 mmHg 83%
15:00 +23°C° 1.5 mm 1 mps 641 mmHg 86%
16:00 +22°C° 1.5 mm 1 mps 640 mmHg 89%
17:00 +21°C° 1 mm 1 mps 640 mmHg 90%
18:00 +18°C° 1 mm 0 mps 640 mmHg 91%
19:00 +18°C° 1 mm 0 mps 640 mmHg 93%
20:00 +17°C° 0.4 mm 0 mps 640 mmHg 93%
21:00 +17°C° 0.4 mm 0 mps 641 mmHg 93%
22:00 +17°C° 0.4 mm 0 mps 641 mmHg 92%
23:00 +17°C° 0.2 mm 0 mps 641 mmHg 92%

5 October, Monday

Time Temperature Precipitation Wind Pressure Humidity
00:00 +16°C° 0.2 mm 0 mps 641 mmHg 92%
01:00 +16°C° 0.2 mm 0 mps 641 mmHg 92%
02:00 +18°C° 0 mm 1 mps 641 mmHg 93%
03:00 +18°C° 0 mm 1 mps 640 mmHg 94%
04:00 +16°C° 0 mm 1 mps 640 mmHg 94%
05:00 +16°C° 0 mm 0 mps 641 mmHg 94%
06:00 +16°C° 0 mm 0 mps 641 mmHg 94%
07:00 +16°C° 0 mm 0 mps 641 mmHg 94%
08:00 +17°C° 0.4 mm 0 mps 642 mmHg 94%
09:00 +17°C° 0.4 mm 0 mps 642 mmHg 93%
10:00 +18°C° 0.4 mm 0 mps 643 mmHg 93%
11:00 +18°C° 0.2 mm 0 mps 642 mmHg 91%
12:00 +21°C° 0.2 mm 1 mps 642 mmHg 88%
13:00 +22°C° 0.2 mm 1 mps 641 mmHg 86%
14:00 +22°C° 0.1 mm 1 mps 641 mmHg 84%
15:00 +22°C° 0.1 mm 1 mps 641 mmHg 82%
16:00 +23°C° 0.1 mm 1 mps 640 mmHg 80%
17:00 +21°C° 0.5 mm 1 mps 640 mmHg 85%
18:00 +20°C° 0.5 mm 1 mps 640 mmHg 90%
19:00 +19°C° 0.5 mm 1 mps 640 mmHg 95%
20:00 +19°C° 0.5 mm 1 mps 641 mmHg 94%
21:00 +19°C° 0.5 mm 1 mps 641 mmHg 94%
22:00 +19°C° 0.5 mm 1 mps 642 mmHg 94%
23:00 +19°C° 0 mm 1 mps 641 mmHg 92%

6 October, Tuesday

Time Temperature Precipitation Wind Pressure Humidity
00:00 +18°C° 0 mm 1 mps 641 mmHg 90%
01:00 +18°C° 0 mm 1 mps 640 mmHg 89%
02:00 +18°C° 0 mm 1 mps 640 mmHg 90%
03:00 +18°C° 0 mm 1 mps 640 mmHg 90%
04:00 +18°C° 0 mm 1 mps 640 mmHg 91%
05:00 +18°C° 0 mm 1 mps 640 mmHg 92%
06:00 +16°C° 0 mm 0 mps 641 mmHg 92%
07:00 +17°C° 0 mm 0 mps 641 mmHg 93%
08:00 +18°C° 0.1 mm 0 mps 642 mmHg 87%
09:00 +20°C° 0.1 mm 0 mps 643 mmHg 81%
10:00 +22°C° 0.1 mm 0 mps 644 mmHg 75%
11:00 +23°C° 1.4 mm 0 mps 643 mmHg 77%
12:00 +25°C° 1.4 mm 1 mps 642 mmHg 78%
13:00 +25°C° 1.4 mm 1 mps 642 mmHg 80%
14:00 +24°C° 1.9 mm 1 mps 641 mmHg 82%
15:00 +23°C° 1.9 mm 1 mps 640 mmHg 85%
16:00 +23°C° 1.9 mm 1 mps 640 mmHg 88%
17:00 +22°C° 2.3 mm 1 mps 640 mmHg 91%
18:00 +20°C° 2.3 mm 1 mps 640 mmHg 93%
19:00 +19°C° 2.3 mm 1 mps 640 mmHg 96%
20:00 +19°C° 1.4 mm 1 mps 640 mmHg 96%
21:00 +19°C° 1.4 mm 1 mps 641 mmHg 96%
22:00 +19°C° 1.4 mm 1 mps 641 mmHg 95%
23:00 +19°C° 0.2 mm 1 mps 641 mmHg 95%
Show more